Location: Oberkirch
(48.5323°N, 8.0787°E)
Time: 01:00:43
(UTC+00:00)

CUTE 1.7 + AOD 2 - Pass Details

Date: 19 March 2026
Orbit: 535 x 545 km, 97.8° (Epoch: 14 April)

Event Time Altitude Azimuth Distance (km) Brightness Sun altitude
Rises 03:42:50 0° 17° (NNE) 2,722 ? -18.7°
Reaches altitude 10° 03:45:00 10° 22° (NNE) 1,825 ? -18.3°
Maximum altitude 03:48:52 56° 100° (E) 657 ? -17.7°
Drops below altitude 10° 03:52:44 10° 180° (S) 1,811 ? -17.1°
Enters shadow 03:53:38 - 182° (S) 2,182 ? -17.0°
